Port Angeles, WA
on Friday, February 22, 2013

Friday
Previous Day Next Day
Daily Summary
 ActualAverageRecord
Temperature
Mean Temperature °F °F  
Max Temperature 48°F 50°F 71°F (1966)
Min Temperature 37°F 36°F 26°F (2005)
Degree Days
Heating Degree Days 22    
Moisture
Dew Point 37°F   
Average Humidity 86    
Maximum Humidity 93    
Minimum Humidity 68    
Precipitation
Precipitation 0.18 in in in ()
Wind
Wind Speed 4 mph   
Max Wind Speed 20 mph   
Max Gust Speed 31 mph   
Visibility 9 miles   
Events Rain   
Averages and records for this station are not official NWS values.
Key: T is trace of precipitation, MM is missing value
Source: NWS Daily Summary
Seasonal Weather Averages
Time(PST)TemperatureDew PointHumidity Pressure Visibility Wind DirectionWind SpeedGust SpeedPrecipitationEvents Conditions
12:42 AM 41.0°F 37.9°F 89% 30.00 in 10.0 miles Calm Calm - 0.00 in Rain Light Rain
12:49 AM 41.0°F 37.4°F 87% 30.00 in 10.0 miles Calm Calm - 0.00 in Rain Light Rain
12:53 AM 41.0°F 37.9°F 89% 30.01 in 10.0 miles Calm Calm - 0.00 in Rain Light Rain
1:13 AM 41.0°F 39.0°F 93% 29.99 in 10.0 miles Calm Calm - 0.00 in   Overcast
1:21 AM 41.0°F 39.0°F 93% 29.98 in 10.0 miles Calm Calm - 0.00 in   Overcast
1:51 AM 42.8°F 39.2°F 87% 29.97 in 10.0 miles Calm Calm - 0.00 in Rain Light Rain
1:53 AM 41.0°F 39.0°F 93% 29.98 in 10.0 miles Calm Calm - 0.00 in Rain Light Rain
2:04 AM 41.0°F 39.0°F 93% 29.97 in 10.0 miles Calm Calm - 0.00 in Rain Light Rain
2:23 AM 39.9°F 37.9°F 93% 29.96 in 10.0 miles Calm Calm - 0.00 in   Overcast
2:33 AM 41.0°F 39.0°F 93% 29.95 in 10.0 miles Calm Calm - 0.00 in   Overcast
2:44 AM 41.0°F 39.0°F 93% 29.95 in 10.0 miles SE 3.5 mph - 0.00 in   Overcast
2:53 AM 41.0°F 39.0°F 93% 29.96 in 10.0 miles Calm Calm - 0.00 in   Overcast
3:18 AM 41.0°F 39.0°F 93% 29.91 in 10.0 miles SE 6.9 mph - 0.00 in Rain Light Rain
3:36 AM 41.0°F 39.0°F 93% 29.91 in 10.0 miles SSE 4.6 mph - 0.00 in   Overcast
3:53 AM 41.0°F 39.0°F 93% 29.91 in 10.0 miles East 3.5 mph - 0.00 in   Overcast
4:27 AM 41.0°F 39.0°F 93% 29.86 in 10.0 miles ESE 5.8 mph - N/A   Overcast
4:53 AM 41.0°F 37.9°F 89% 29.83 in 10.0 miles ESE 6.9 mph - 0.00 in   Overcast
5:53 AM 41.0°F 39.0°F 93% 29.78 in 10.0 miles Calm Calm - N/A   Overcast
6:45 AM 41.0°F 37.9°F 89% 29.75 in 10.0 miles Variable 4.6 mph - 0.00 in Rain Light Rain
6:53 AM 41.0°F 37.9°F 89% 29.77 in 10.0 miles WNW 6.9 mph - 0.00 in Rain Light Rain
7:37 AM 42.1°F 39.9°F 92% 29.76 in 5.0 miles NNW 10.4 mph - 0.03 in Rain Light Rain
7:53 AM 42.1°F 39.9°F 92% 29.74 in 6.0 miles Variable 3.5 mph - 0.06 in Rain Light Rain
8:39 AM 41.0°F 39.0°F 93% 29.72 in 5.0 miles Calm Calm - 0.04 in Rain Light Rain
8:49 AM 41.0°F 37.4°F 87% 29.71 in 5.0 miles East 3.5 mph - 0.05 in Rain Rain
8:53 AM 41.0°F 37.9°F 89% 29.72 in 5.0 miles Variable 3.5 mph - 0.06 in Rain Rain
9:32 AM 41.0°F 39.0°F 93% 29.69 in 10.0 miles SSE 5.8 mph - 0.01 in Rain Light Rain
9:53 AM 42.1°F 39.0°F 89% 29.70 in 8.0 miles SSE 10.4 mph - 0.01 in Rain Light Rain
10:53 AM 44.1°F 39.0°F 82% 29.65 in 10.0 miles South 8.1 mph - 0.00 in Rain Light Rain
11:53 AM 44.1°F 41.0°F 89% 29.67 in 6.0 miles West 5.8 mph - 0.01 in Rain Rain
12:53 PM 48.0°F 42.1°F 80% 29.63 in 10.0 miles WNW 9.2 mph - 0.00 in   Clear
1:53 PM 48.9°F 41.0°F 74% 29.63 in 10.0 miles West 8.1 mph - 0.00 in Rain Light Rain
2:53 PM 46.0°F 36.0°F 68% 29.68 in 10.0 miles West 15.0 mph 25.3 mph 0.00 in Rain Light Rain
3:53 PM 45.0°F 35.1°F 68% 29.71 in 10.0 miles West 13.8 mph 19.6 mph 0.00 in   Mostly Cloudy
4:20 PM 43.0°F 35.1°F 74% 29.71 in 9.0 miles West 9.2 mph 23.0 mph 0.01 in Rain Light Rain
4:39 PM 42.1°F 36.0°F 79% 29.71 in 10.0 miles WSW 6.9 mph - 0.01 in   Overcast
4:53 PM 42.1°F 36.0°F 79% 29.73 in 10.0 miles West 5.8 mph - 0.01 in   Mostly Cloudy
5:53 PM 39.9°F 33.1°F 77% 29.76 in 9.0 miles West 18.4 mph 31.1 mph 0.01 in Rain Rain
6:26 PM 37.9°F 34.0°F 86% 29.75 in 10.0 miles WSW 12.7 mph - 0.02 in Rain Light Rain
6:53 PM 37.9°F 34.0°F 86% 29.76 in 10.0 miles West 11.5 mph - 0.02 in   Mostly Cloudy
7:53 PM 37.9°F 33.1°F 83% 29.78 in 10.0 miles West 15.0 mph - 0.00 in   Mostly Cloudy
8:53 PM 37.9°F 33.1°F 83% 29.79 in 10.0 miles WSW 18.4 mph 25.3 mph 0.00 in Rain Light Rain
9:53 PM 37.9°F 32.0°F 79% 29.82 in 10.0 miles West 19.6 mph 26.5 mph 0.00 in   Partly Cloudy
10:53 PM 39.0°F 32.0°F 76% 29.86 in 10.0 miles West 12.7 mph - N/A   Mostly Cloudy
11:53 PM 39.0°F 32.0°F 76% 29.86 in 10.0 miles West 12.7 mph 21.9 mph N/A   Overcast
Moon Phase
Feb. 22 Feb. 25 Mar. 04 Mar. 11 Mar. 19
Sunrise:07:07 AM (PST) Moon Rise:02:56 PM (PST)
Sunset:05:48 PM (PST) Moon Set:05:05 AM (PST)

Copyright © 2014 The Weather Underground, Inc.